Regional Weather Roundup
Issued by NWS

Home | Current Version | Previous Version | Graphics & Text | Print | Product List | Glossary On
Versions: 1 2 3 4 5 6 7 8 9 10 11 12 13 14 15 16 17 18 19 20 21 22 23 24 25 26 27 28 29 30 31 32 33 34 35 36 37 38 39 40 41 42 43 44 45 46 47 48 49 50
000
ASUS43 KOAX 160910
RWRNE

WEATHER ROUNDUP FOR NEBRASKA
NATIONAL WEATHER SERVICE OMAHA NE
400 AM CDT WED AUG 16 2017

NOTES: SATELLITE DATA IS BEING USED TO AUGMENT CLOUD COVER ABOVE
       12000 FEET.
       "FAIR" INDICATES FEW OR NO CLOUDS BELOW 12,000 FEET WITH NO
       SIGNIFICANT WEATHER AND/OR OBSTRUCTIONS TO VISIBILITY.


NEZ001>004-019>022-054>056-161000-
NEBRASKA PANHANDLE

CITY           SKY/WX    TMP DP  RH WIND       PRES   REMARKS
SCOTTSBLUFF    CLOUDY    60  55  83 NW9       29.99S
ALLIANCE       CLOUDY    60  59  96 NW8       29.95F
CHADRON        CLOUDY    62  59  90 W5        29.96R
GORDON         FAIR      61  59  93 SW3       29.95F
KIMBALL        CLOUDY    57  56  97 N8        30.02F
SIDNEY         CLOUDY    58  57  97 NW8       30.00S
$$

NEZ057>060-069>072-079>082-161000-
SOUTHWEST NEBRASKA

CITY           SKY/WX    TMP DP  RH WIND       PRES   REMARKS
NORTH PLATTE   CLOUDY    62  59  90 NE7       29.87F
IMPERIAL       CLOUDY    60  58  92 E8        29.90F
LEXINGTON      RAIN      63  59  87 NE12      29.85F
MCCOOK         CLOUDY    62  60  93 NW3       29.91R
OGALLALA       CLOUDY    62  60  93 CALM      29.91F
$$

NEZ005>010-023>029-035>040-094-161000-
NORTH CENTRAL NEBRASKA

CITY           SKY/WX    TMP DP  RH WIND       PRES   REMARKS
VALENTINE      LGT RAIN  64  59  83 SE7       29.85F
AINSWORTH      LGT RAIN  62  62 100 S3        29.87F
BROKEN BOW     RAIN      62  62 100 N9        29.85F
O`NEILL        RAIN      64  64 100 W6        29.88F
ORD            RAIN      63  61  93 NW8       29.87F FOG
THEDFORD       LGT RAIN  61  59  94 E3        29.87F
$$

NEZ041-046>049-061>064-073>077-083>087-161000-
SOUTH CENTRAL NEBRASKA

CITY           SKY/WX    TMP DP  RH WIND       PRES   REMARKS
GRAND ISLAND   HVY RAIN  64  64 100 NW21G32   29.85R FOG
AURORA         CLOUDY    65  65 100 E6        29.79S
HASTINGS       TSTM      64  62  93 NW23G33   29.83F FOG
HEBRON         CLOUDY    73  72  94 SE3       29.77F
HOLDREGE       TSTM      62  60  94 N10G20    29.86S
KEARNEY        CLOUDY    63  61  94 N23       29.82F FOG
YORK           LGT RAIN  66  66 100 NE7       29.79F
$$

NEZ011>018-030>034-042>045-161000-
NORTHEAST NEBRASKA

CITY           SKY/WX    TMP DP  RH WIND       PRES   REMARKS
NORFOLK        LGT RAIN  65  64  97 E7G23     29.82F
ALBION         LGT RAIN  66  65  96 NE5       29.82R
BLAIR          RAIN      70  69  96 SE7       29.81F
COLUMBUS       LGT RAIN  67  66  97 E14       29.80F
FREMONT        LGT RAIN  68  67  97 N6        29.83S
TEKAMAH        CLOUDY    67  65  93 N6        29.83F
WAYNE          HVY RAIN  66  64  91 NE3       29.86F
$$

NEZ050>053-065>068-078-088>093-161000-
SOUTHEAST NEBRASKA

CITY           SKY/WX    TMP DP  RH WIND       PRES   REMARKS
LINCOLN        CLOUDY    71  69  93 E5        29.79F
OMAHA EPPLEY   CLOUDY    72  67  84 SE9       29.81F
BEATRICE       CLOUDY    75  72  88 SE9G16    29.77F
FALLS CITY     CLOUDY    74  70  87 SE9       29.80F
NEBRASKA CITY  PTCLDY    72  72 100 SE7       29.81F
PLATTSMOUTH    CLOUDY    70  68  95 E6        29.81F
$$

NEZ044-045-051>053-067-161000-
OMAHA AREA

CITY           SKY/WX    TMP DP  RH WIND       PRES   REMARKS
OMAHA EPPLEY   CLOUDY    72  67  84 SE9       29.81F
BLAIR          RAIN      70  69  96 SE7       29.81F
FREMONT        LGT RAIN  68  67  97 N6        29.83S
MILLARD        CLOUDY    72  70  92 SE3       29.81S
OFFUTT AFB     CLOUDY    71  68  89 E7        29.79F
PLATTSMOUTH    CLOUDY    70  68  95 E6        29.81F
WAHOO          DRIZZLE   69  68  96 NE8       29.80F
$$



USA.gov is the U.S. government's official web portal to all federal, state and local government web resources and services.